This is the latest recevied weather packets stored in our database for station/object KF6YUA. If no packets are shown the sender has not sent any weather packets the latest 10 day(s).
| Time | Temp. | Humidity | Pressure | Rain* | Wind** | Luminosity | Snow |
|---|---|---|---|---|---|---|---|
| 1777564621 | 10° C | 99% | 1017.5 hPa | 0 mm | - | 111 W/m² | - |
| 1777564316 | 9.44° C | 99% | 1017.6 hPa | 0 mm | - | 98 W/m² | - |
| 1777564012 | 9.44° C | 99% | 1017.7 hPa | 0 mm | - | 97 W/m² | - |
| 1777563709 | 9.44° C | 99% | 1017.6 hPa | 0 mm | - | 105 W/m² | - |
| 1777563404 | 9.44° C | 99% | 1017.5 hPa | 0 mm | - | 103 W/m² | - |
| 1777563100 | 9.44° C | 99% | 1017.8 hPa | 0 mm | - | 99 W/m² | - |
| 1777562795 | 9.44° C | 99% | 1017.6 hPa | 0 mm | - | 87 W/m² | - |
| 1777562494 | 9.44° C | 99% | 1017.7 hPa | 0 mm | - | 84 W/m² | - |
| 1777562191 | 9.44° C | 99% | 1017.6 hPa | 0 mm | - | 38 W/m² | - |
| 1777561888 | 8.89° C | 99% | 1017.7 hPa | 0 mm | - | 73 W/m² | - |
| 1777561585 | 8.89° C | 99% | 1017.8 hPa | 0 mm | - | 70 W/m² | - |
| 1777561281 | 9.44° C | 99% | 1017.6 hPa | 0 mm | - | 64 W/m² | - |
| 1777560981 | 8.89° C | 99% | 1017.4 hPa | 0 mm | - | 62 W/m² | - |
| 1777560677 | 8.89° C | 99% | 1017.4 hPa | 0 mm | - | 59 W/m² | - |
| 1777560375 | 8.89° C | 99% | 1017.5 hPa | 0 mm | - | 62 W/m² | - |
| 1777560072 | 8.89° C | 99% | 1017.4 hPa | 0 mm | - | 64 W/m² | - |
| 1777559768 | 8.33° C | 99% | 1017.5 hPa | 0 mm | - | 55 W/m² | - |
| 1777559465 | 8.33° C | 99% | 1017.3 hPa | 0 mm | - | 54 W/m² | - |
| 1777559162 | 8.33° C | 99% | 1017.4 hPa | 0 mm | - | 55 W/m² | - |
| 1777558862 | 8.33° C | 99% | 1017.3 hPa | 0 mm | - | 44 W/m² | - |
| 1777558557 | 7.78° C | 99% | 1017 hPa | 0 mm | - | 46 W/m² | - |
| 1777558254 | 7.78° C | 99% | 1017.2 hPa | 0 mm | - | 42 W/m² | - |
| 1777557950 | 7.78° C | 99% | 1017.4 hPa | 0 mm | - | 33 W/m² | - |
| 1777557647 | 7.78° C | 99% | 1017.2 hPa | 0 mm | - | 28 W/m² | - |
| 1777557343 | 7.22° C | 99% | 1017.1 hPa | 0 mm | - | 23 W/m² | - |
* Rain latest hour (hover to see other rain measurements)
** Current wind speed in m/s (hover to see current wind gust speed)